Regional Weather Roundup
Issued by NWS

Home | Current Version | Previous Version | Graphics & Text | Print | Product List | Glossary On
Versions: 1 2 3 4 5 6 7 8 9 10 11 12 13 14 15 16 17 18 19 20 21 22 23 24 25 26 27 28 29 30 31 32 33 34 35 36 37 38 39 40 41 42 43 44 45 46 47 48 49 50
000
ASUS43 KMKX 250817
RWRWI

WISCONSIN REGIONAL WEATHER ROUNDUP
NATIONAL WEATHER SERVICE MILWAUKEE/SULLIVAN WI
300 AM CDT MON MAY 25 2015

NOTE: "FAIR" INDICATES FEW OR NO CLOUDS BELOW 12,000 FEET WITH NO
SIGNIFICANT WEATHER AND/OR OBSTRUCTIONS TO VISIBILITY.

WIZ001-002-006>008-014>016-023>028-250900-
NORTHWEST WISCONSIN

CITY           SKY/WX    TMP DP  RH WIND       PRES   REMARKS
SUPERIOR ARPT  DRIZZLE   49  47  95 E7        29.81F
ASHLAND        LGT RAIN  57  57 100 NE9       29.83F FOG
HAYWARD        LGT RAIN  57  55  93 NE5       29.79F
SIREN          RAIN      57  56  95 E5        29.76F
CUMBERLAND     RAIN      55  54  94 E7        29.75F
RICE LAKE      HVY RAIN  56  54  92 E6        29.77F
CHETEK         RAIN      56  56  98 E5        29.75F
LADYSMITH      LGT RAIN  57  56  97 E7        29.78F
EAU CLAIRE     LGT RAIN  57  55  93 E5        29.74F
MENOMONIE      RAIN      57  56  97 E3        29.74F
NEW RICHMOND   DRIZZLE   56  56 100 E6        29.74S
OSCEOLA        CLOUDY    58  58 100 E7        29.76S
$$

WIZ003>005-009-010-017-018-250900-
NORTH CENTRAL WISCONSIN

CITY           SKY/WX    TMP DP  RH WIND       PRES   REMARKS
MANITOWISH WTR LGT RAIN  56  56 100 E6        29.82F
ARBOR VITAE    LGT RAIN  57  55  95 E7        29.82F
WOODRUFF       LGT RAIN  57  55  95 E7        29.82F
RHINELANDER    RAIN      56  54  93 E9        29.84F FOG
EAGLE RIVER    LGT RAIN  56  55  99 E9        29.84F
LAND O LAKES   RAIN      57  56  98 E6        29.86F
PHILLIPS       DRIZZLE   55  55  98 E6        29.79F
TOMAHAWK       RAIN      55  54  96 E5        29.82F
MEDFORD        RAIN      54  54  99 E7        29.78F
MERRILL        CLOUDY    56  56 100 E8        29.81F
$$

WIZ029-030-035-036-043>047-250900-
CENTRAL WISCONSIN

CITY           SKY/WX    TMP DP  RH WIND       PRES   REMARKS
WAUSAU         LGT RAIN  56  55  97 E10       29.79F
MOSINEE        LGT RAIN  54  54 100 E7        29.80F VSB 3/4
MARSHFIELD     LGT RAIN  57  55  93 SE8       29.77F VSB 1/2
STEVENS POINT  DRIZZLE   55  55  99 E7        29.80F
WAUPACA        RAIN      60  59  97 E5        29.81F
WAUTOMA        CLOUDY    59  59 100 E3        29.80F FOG
WISC RAPIDS    CLOUDY    59  57  93 SE6       29.79F FOG
CAMP DOUGLAS   CLOUDY    59  59 100 SE7       29.76S FOG
$$

WIZ011>013-019>022-031-037>040-048>050-250900-
NORTHEAST WISCONSIN

CITY           SKY/WX    TMP DP  RH WIND       PRES   REMARKS
ANTIGO         LGT RAIN  54  54  99 SE9       29.83F
SHAWANO        CLOUDY    59  57  96 E3        29.84F
OCONTO         CLOUDY    55  55 100 E6        29.84F
STURGEON BAY   CLOUDY    55  52  88 SE8       29.87F VSB 1
GREEN BAY      CLOUDY    58  57  97 E5        29.83F FOG
MANITOWOC      FOG       52  52 100 SE5       29.85F VSB 1
APPLETON       CLOUDY    57  57 100 E3        29.83F FOG
CLINTONVILLE   LGT RAIN  57  55  94 E3        29.82F
OSHKOSH        CLOUDY    60  58  92 S5        29.81F FOG
$$

WIZ032>034-041-042-053>061-250900-
SOUTHWEST WISCONSIN

CITY           SKY/WX    TMP DP  RH WIND       PRES   REMARKS
LA CROSSE      CLOUDY    62  59  90 CALM      29.72F FOG
SPARTA         CLOUDY    60  59  96 E3        29.75F FOG
VIROQUA        CLOUDY    63  63 100 SE10      29.75F
BOSCOBEL       CLOUDY    62  60  93 CALM      29.75F FOG
PRAIRIE DU CHI DRIZZLE   67  64  89 SE8       29.74F
PLATTEVILLE    CLOUDY    66  65  97 S9        29.77F
$$

WIZ056-057-062-063-064-067-068-250900-
SOUTH CENTRAL WISCONSIN

CITY           SKY/WX    TMP DP  RH WIND       PRES   REMARKS
REEDSBURG      DRIZZLE   61  61 100 CALM      29.77S
BARABOO/DELLS  CLOUDY    62  60  94 S8        29.77F FOG
LONE ROCK      CLOUDY    63  61  93 E3        29.77F FOG
MINERAL POINT  CLOUDY    66  64  94 S7        29.78F
MADISON        CLOUDY    65  63  93 S9        29.78F FOG
MIDDLETON      CLOUDY    67  67 100 S9        29.79F
WATERTOWN      DRIZZLE   65  65 100 S7        29.81F
MONROE         DRIZZLE   64  63  94 S9G16     29.80S
JANESVILLE     CLOUDY    66  64  94 S7        29.81S
$$

WIZ051-052-058>065-066-070>072-250900-
SOUTHEAST WISCONSIN

CITY           SKY/WX    TMP DP  RH WIND       PRES   REMARKS
MILWAUKEE      CLOUDY    56  55  97 CALM      29.85F FOG
WAUKESHA       RAIN      61  61 100 SW3       29.86F
MILWAUKEE/TIMM LGT RAIN  57  55  94 SE3       29.85F
RACINE         CLOUDY    58  56  93 NE3       29.86F FOG
BURLINGTON     CLOUDY    59  59  99 CALM      29.83F FOG
KENOSHA        CLOUDY    65  62  90 VRB5      29.84F
FOND DU LAC    LGT RAIN  61  59  93 S7        29.82F
SHEBOYGAN      LGT RAIN  55  53  93 CALM      29.84F FOG
WEST BEND      RAIN      59  57  94 CALM      29.84F
JUNEAU         DRIZZLE   62  61  98 SE9       29.82F
$$

LSZ147-162-250900-
LAKE SUPERIOR

STATION/POSITION TIME  TEMP    WIND        PRES    WAVE
                       AIR SEA DIR/SP/G            HT/PER
                 (UTC) (F)     (DEG/KT/KT) (MB)    (FT/S)
W MID LAKE BUOY  0750   42 37   80/  6/  6   N/A     0
DEVILS ISLAND    0800   49      40/ 13/ 14   N/A
PORT WING        0700   52      30/  6/  7   N/A
SAXON HARBOR     0700   53        CALM       N/A
$$

LMZ867-665-643>646-250900-
LAKE MICHIGAN

STATION/POSITION TIME  TEMP    WIND        PRES    WAVE
                       AIR SEA DIR/SP/G            HT/PER
                 (UTC) (F)     (DEG/KT/KT) (MB)    (FT/S)
CHAMBERS ISLAND  0700   52      50/  7/ 10   N/A
N MID LAKE BUOY  0750   44 36   70/ 10/ 12   N/A     1
NORTHPORT PIER   0700   50     100/  3/  8   N/A
SISTER BAY       0732   55     130/  9/ 14   N/A
KEWAUNEE LAKESHO 0700   48      50/  5/  7   N/A
SHEBOYGAN LAKESH 0800   49     190/  4/  5   N/A
PORT WASHINGTON  0740   50      CALM  /  2   N/A
ATWATER BUOY     0700   49 46   80/  6/  8   N/A
MILWAUKEE LAKESH 0700   50      40/  4/  5   N/A
S MID LAKE BUOY  0750   48 38  160/ 12/ 14   N/A     1/ 3
KENOSHA   LAKESH 0800   53     140/  3/  4   N/A
$$

TC  - TEMPERATURE IN CELSIUS
VSB - VISIBILITY IN STATUTE MILES
WCI - WIND CHILL INDEX
HX  - HEAT INDEX




USA.gov is the U.S. government's official web portal to all federal, state and local government web resources and services.